Карточка аэропорта UNWW

Внимание!
Информация на этой странице в стадии наполнения.
Если вы не увидели какой-то информации, или заметили неточность - пожалуйста сообщите нам!
Спасибо!
Команда RU-STAFF
Название аэропортаСпиченково
Название аэропорта (англ.)Spichenkovo
Превышение1023 ft. (311.8 m.)
Координаты53°48.714', 86°52.704'
Высота перехода800m
Эшелон переходаFL050
Коды ответчика5270-5277
Зона ОрВДНовосибирск РПИ (UNNT)
Данные METARUNWW 260200Z 35002MPS 320V060 9999 SCT013 BKN023CB 11/08 Q1012 R19/220252 NOSIG RMK QFE732
Проноз погоды (TAF)UNWW 252000Z 2521/2621 33003G08MPS 8000 BKN016CB TX16/2609Z TN07/2523Z TEMPO 2521/2603 0150 -SHRA FG BKN001 BKN011CB BECMG 2603/2605 13003G08MPS BKN040CB BECMG 2612/2615 21006G13MPS
NOTAMshow/hide NOTAM
AWOS   TABLE

Информация о ВПП

ВПП Длина ВПП (м.) Покрытие Курс ВПП Частота ILS
012679Цементобетон14 
192679Цементобетон194111.1

Диспетчерские позиции

Позывной Наименование органа УВД Частота
UNWW_APPНовокузнецк-Подход118.6
UNWW_TWRНовокузнецк-Старт121.2



Спутниковое изображение